DW3838 Weather Reports


Display with metric or nautical units.
time (UTC)temp
F
wind
direction
speed
MPH
gust
MPH
rain 1hr
in
rain 24hr
in
rain mn
in
humidity
%
barometer
mb
20260903020054 62 173 0.0 4.0 0.00 0.23 0.23 82 1016.6
20260903014611 62 188 1.0 6.0 0.00 0.23 0.23 80 1016.7
20260903013101 63 142 0.0 6.0 0.00 0.23 0.23 78 1016.7
20260903011614 65 172 2.0 8.0 0.00 0.23 0.23 75 1016.8
20260903010105 65 18 0.0 3.0 0.00 0.23 0.23 74 1016.7
20260903004549 66 183 1.0 8.0 0.00 0.23 0.23 71 1016.7
20260903003104 67 317 0.0 6.0 0.00 0.23 0.23 72 1016.6
20260903001556 69 169 0.0 6.0 0.00 0.23 0.23 69 1016.7
20260903000049 70 240 3.0 9.0 0.00 0.23 0.23 65 1016.8
20260902234546 71 195 0.0 5.0 0.00 0.23 0.23 64 1016.8
20260902233045 70 176 1.0 12.0 0.00 0.23 0.23 62 1016.9
20260902231548 70 177 0.0 10.0 0.00 0.23 0.23 65 1017.0
20260902230053 70 184 1.0 10.0 0.00 0.23 0.23 66 1017.2
20260902224543 71 280 0.0 8.0 0.00 0.23 0.23 64 1017.3
20260902223043 71 153 3.0 10.0 0.00 0.23 0.23 64 1017.3
20260902221538 70 238 3.0 9.0 0.00 0.23 0.23 66 1017.3
20260902220042 69 174 1.0 9.0 0.00 0.23 0.23 65 1017.4
20260902214541 69 169 1.0 9.0 0.00 0.23 0.23 70 1017.5
20260902213034 69 184 1.0 8.0 0.00 0.23 0.23 70 1017.5
20260902211533 69 236 1.0 6.0 0.00 0.23 0.23 68 1017.6
20260902210032 69 148 2.0 7.0 0.00 0.23 0.23 70 1017.6
20260902204529 68 346 0.0 7.0 0.00 0.23 0.23 71 1017.6
20260902203026 67 274 0.0 8.0 0.00 0.23 0.23 74 1017.7
20260902201525 67 203 2.0 6.0 0.00 0.23 0.23 72 1017.8
20260902200026 67 22 0.0 4.0 0.00 0.23 0.23 76 1017.8
20260902194535 66 238 1.0 7.0 0.00 0.23 0.23 77 1018.0
20260902193018 66 355 0.0 6.0 0.00 0.23 0.23 79 1018.0
20260902191515 65 184 0.0 3.0 0.00 0.23 0.23 81 1018.2
20260902190015 64 184 1.0 6.0 0.00 0.23 0.23 81 1018.2
20260902184514 65 193 1.0 9.0 0.00 0.23 0.23 85 1018.2
20260902183010 63 201 0.0 6.0 0.00 0.23 0.23 88 1018.2
20260902181506 62 192 1.0 5.0 0.00 0.23 0.23 89 1018.2
20260902180004 60 202 2.0 8.0 0.00 0.23 0.23 90 1017.9
20260902174501 60 236 1.0 6.0 0.00 0.23 0.23 92 1017.9
20260902173100 59 186 0.0 6.0 0.00 0.23 0.23 93 1017.8
20260902171600 59 223 0.0 3.0 0.00 0.23 0.23 93 1017.6
20260902170057 59 207 0.0 4.0 0.00 0.23 0.23 93 1017.5
20260902164557 58 188 0.0 4.0 0.00 0.23 0.23 93 1017.2
20260902163054 58 200 0.0 3.0 0.00 0.23 0.23 93 1017.2
20260902161556 58 178 0.0 4.0 0.01 0.23 0.23 93 1017.1
20260902160106 58 180 2.0 7.0 0.01 0.23 0.23 93 1017.0
20260902154559 58 213 0.0 4.0 0.01 0.23 0.23 93 1017.1
20260902153050 58 213 0.0 1.0 0.01 0.23 0.23 93 1017.0
20260902151553 57 211 0.0 4.0 0.00 0.22 0.22 93 1016.9
20260902150049 57 196 0.0 0.0 0.00 0.22 0.22 92 1016.9
20260902144549 57 196 0.0 2.0 0.02 0.22 0.22 92 1016.9
20260902143047 57 196 0.0 3.0 0.03 0.22 0.22 92 1016.7
20260902141547 56 196 0.0 0.0 0.05 0.22 0.22 92 1016.4
20260902140049 56 196 0.0 0.0 0.09 0.22 0.22 92 1016.2
20260902134547 56 196 0.0 0.0 0.08 0.20 0.20 92 1016.1
20260902133047 56 196 0.0 0.0 0.07 0.19 0.19 92 1016.2
20260902131546 56 196 0.0 0.0 0.08 0.17 0.17 92 1016.0
20260902130044 56 196 0.0 0.0 0.05 0.13 0.13 91 1015.9
20260902124543 56 196 0.0 0.0 0.08 0.12 0.12 91 1015.8
20260902123042 56 196 0.0 0.0 0.10 0.12 0.12 91 1015.8
20260902121547 56 196 0.0 0.0 0.08 0.09 0.09 91 1015.9
20260902120043 56 196 0.0 0.0 0.07 0.08 0.08 91 1015.8
20260902114544 56 196 0.0 0.0 0.03 0.04 0.04 91 1015.8
20260902113043 56 196 0.0 0.0 0.00 0.01 0.01 91 1016.0
20260902111539 56 196 0.0 0.0 0.00 0.01 0.01 90 1015.9
20260902110042 56 196 0.0 0.0 0.00 0.01 0.01 90 1015.8
20260902104553 56 196 0.0 0.0 0.01 0.01 0.01 90 1015.8
20260902103033 57 196 0.0 0.0 0.01 0.01 0.01 90 1016.2
20260902101532 57 196 0.0 0.0 0.01 0.01 0.01 90 1016.3
20260902094529 58 196 0.0 0.0 0.00 0.00 0.00 90 1016.3
20260902093030 58 196 0.0 0.0 0.00 0.00 0.00 90 1016.4
20260902091525 58 196 0.0 0.0 0.00 0.00 0.00 90 1016.5
20260902090025 58 196 0.0 0.0 0.00 0.00 0.00 90 1016.6
20260902084522 58 196 0.0 0.0 0.00 0.00 0.00 90 1016.7
20260902083020 59 196 0.0 0.0 0.00 0.00 0.00 90 1016.8
20260902081517 59 196 0.0 4.0 0.00 0.00 0.00 90 1016.8
20260902080015 59 200 0.0 3.0 0.00 0.00 0.00 90 1016.7
20260902074508 59 198 0.0 0.0 0.00 0.00 0.00 90 1016.7
20260902073003 59 198 0.0 0.0 0.00 0.00 0.00 90 1016.7
20260902071501 59 198 0.0 5.0 0.00 0.00 0.00 90 1016.7
20260902070100 58 193 0.0 0.0 0.00 0.00 0.00 90 1016.7
20260902064605 58 190 0.0 0.0 0.00 0.00 0.00 90 1016.6
20260902063132 58 190 0.0 0.0 0.00 0.00 0.00 90 1016.6
20260902061559 58 184 1.0 5.0 0.00 0.00 0.00 90 1016.5
20260902060131 58 198 0.0 0.0 0.00 0.00 0.00 90 1016.6
20260902054558 58 198 0.0 0.0 0.00 0.00 0.00 90 1016.7
20260902053057 59 198 0.0 5.0 0.00 0.00 0.00 90 1016.7
20260902051604 59 169 0.0 0.0 0.00 0.00 0.00 88 1016.7
20260902050056 60 45 0.0 0.0 0.00 0.00 0.00 88 1016.6
20260902044555 60 45 0.0 0.0 0.00 0.00 0.00 88 1016.6
20260902043101 60 182 0.0 3.0 0.00 0.00 0.00 88 1016.5
20260902041553 60 194 0.0 3.0 0.00 0.00 0.00 87 1016.3
20260902040053 61 224 1.0 7.0 0.00 0.00 0.00 86 1016.2
20260902034553 61 177 0.0 5.0 0.00 0.00 0.00 85 1016.1
20260902033056 61 167 0.0 2.0 0.00 0.00 0.00 85 1016.1
20260902031552 61 154 0.0 3.0 0.00 0.00 0.00 84 1016.1
20260902030054 61 181 0.0 6.0 0.00 0.00 0.00 83 1016.0
20260902024601 61 146 1.0 7.0 0.00 0.00 0.00 82 1015.7
20260902023055 61 167 0.0 5.0 0.00 0.00 0.00 80 1015.8
20260902021551 62 23 0.0 4.0 0.00 0.00 0.00 79 1015.8